Location: Bastogne Gables
(35.1554°N, 78.9900°W)
Time: 02:35:51
(UTC+00:00)

Cosmos 1953 Rocket - Pass Details

Date: 29 October 2020
Orbit: 605 x 634 km, 82.5° (Epoch: 26 November)

Event Time Altitude Azimuth Distance (km) Brightness Sun altitude
Rises 23:04:36 0° 351° (N) 2,905 7.0 -8.9°
Reaches altitude 10° 23:06:50 10° 350° (N) 1,999 6.2 -9.4°
Maximum altitude 23:11:15 76° 265° (W) 651 3.8 -10.3°
Drops below altitude 10° 23:15:41 10° 180° (S) 2,001 6.3 -11.2°
Sets 23:17:55 0° 179° (S) 2,907 7.1 -11.6°
